Retour au catalogue

STARLINK-31548

ActifCommunicationsVLEO
NORAD 59193·PAYLOAD·🇺🇸 United States

Lancé Mar 10, 2024 depuis Cape Canaveral Space Force Station

Loading…

Prochains Passages (prochaines 24 heures)

TLE

FraisSource: CelesTrak SupGP

Époque: Sep 14, 2026, 21:13 UTC

1 59193C 24045R   26257.88451389  .00007331  00000+0  26555-3 0  2576
2 59193  43.0027 104.4477 0001200 272.4431  25.9338 15.27570116    14

Suivez STARLINK-31548 en temps réel avec AllMySat

Download on the App Store